Regional Weather Roundup
Issued by NWS Little Rock, AR

Home | Current Version | Previous Version | Text Only | Print | Product List | Glossary On
Versions: 1 2 3 4 5 6 7 8 9 10 11 12 13 14 15 16 17 18 19 20 21 22 23 24 25 26 27 28 29 30 31 32 33 34 35 36 37 38 39 40 41 42 43 44 45 46
000
ASUS44 KLZK 300405
RWRLZK

WEATHER ROUNDUP FOR ARKANSAS
NATIONAL WEATHER SERVICE LITTLE ROCK AR
1100 PM CDT WED JUL 29 2015

NOTE: "FAIR" INDICATES FEW OR NO CLOUDS BELOW 12,000 FEET WITH NO
SIGNIFICANT WEATHER AND/OR OBSTRUCTIONS TO VISIBILITY.

ARZ001-003-010-029-300500-
NORTHWEST ARKANSAS

CITY           SKY/WX    TMP DP  RH WIND       PRES   REMARKS
FAYETTEVILLE   CLEAR     80  75  84 NE6       30.12R HX  85
FORT SMITH     CLEAR     87  74  64 CALM      30.04R HX  95
HARRISON       MOCLDY    77  72  84 CALM      30.15R
BENTONVILLE    CLEAR     81  70  69 E6        30.14R
ROGERS         CLEAR     80  71  74 E8        30.14R
SILOAM SPGS    CLEAR     81  70  69 E6        30.11R
HIGHFILL       CLEAR     81  74  79 NE6       30.13R HX  86
$$

ARZ004-005-016-300500-
NORTH CENTRAL ARKANSAS

CITY           SKY/WX    TMP DP  RH WIND       PRES   REMARKS
BATESVILLE     CLEAR     82  75  78 NE5       30.07S HX  89
FLIPPIN        PTCLDY    81  72  74 NE5       30.09S
MTN HOME       CLEAR     79  72  79 CALM      30.10S
$$

ARZ040-041-300500-
WEST CENTRAL ARKANSAS

CITY           SKY/WX    TMP DP  RH WIND       PRES   REMARKS
MENA           PTCLDY    82  72  69 CALM      30.09R HX  87
MOUNT IDA      CLEAR     81  74  79 CALM      30.05R HX  86
$$

ARZ009-017-025-026-028-300500-
NORTHEAST ARKANSAS

CITY           SKY/WX    TMP DP  RH WIND       PRES   REMARKS
JONESBORO      CLEAR     82  77  84 N5        30.04S HX  90
NEWPORT        CLEAR     82  77  85 N8        30.06R HX  90
WALNUT RIDGE   CLEAR     81  73  78 N8        30.05F HX  85
BLYTHEVILLE    MOCLDY    80  77  90 N3        30.05R HX  87
$$

ARZ022-023-033-042-044-300500-
CENTRAL ARKANSAS

CITY           SKY/WX    TMP DP  RH WIND       PRES   REMARKS
LITTLE ROCK    PTCLDY    87  72  60 CALM      30.03R HX  93
N LITTLE ROCK  PTCLDY    87  74  66 NE5       30.03R HX  95
JACKSONVILLE   CLEAR     80  77  91 CALM      30.03R HX  87
SEARCY         CLEAR     82  77  84 CALM      30.04S HX  90
HOT SPRINGS    CLEAR     87  71  58 CALM      30.05R HX  93
RUSSELLVILLE   CLEAR     81  75  82 CALM      30.03R HX  87
CLINTON        LGT RAIN  82  77  83 CALM      30.08S HX  91
$$

ARZ036-300500-
EAST ARKANSAS

CITY           SKY/WX    TMP DP  RH WIND       PRES   REMARKS
WEST MEMPHIS   PTCLDY    83  81  94 N7        30.01R HX  97
$$

ARZ050-053-066-070-073-300500-
SOUTHWEST ARKANSAS

CITY           SKY/WX    TMP DP  RH WIND       PRES   REMARKS
ARKADELPHIA    FAIR      81  78  90 CALM      30.03R HX  89
CAMDEN         CLEAR     81  75  83 CALM      30.02R HX  86
TEXARKANA      CLEAR     83  71  67 CALM      30.03R HX  87
EL DORADO      CLEAR     80  74  81 CALM      30.03R HX  85
DE QUEEN       PTCLDY    79  76  90 CALM      30.02R
$$

ARZ056-057-069-300500-
SOUTHEAST ARKANSAS

CITY           SKY/WX    TMP DP  RH WIND       PRES   REMARKS
PINE BLUFF     CLEAR     85  77  77 CALM      30.02R HX  95
STUTTGART      CLEAR     88  75  66 NE5       30.03R HX  97
MONTICELLO     CLEAR     83  79  88 CALM      30.02R HX  94

$$




USA.gov is the U.S. government's official web portal to all federal, state and local government web resources and services.